CAPE
49 198 376 456 681 838 1001 1026 1044 1136 1175 1252 1309 1416 1551 1582 1533 1642 1370 1177 1075 929 874 886 922 1019 1212 1394 1500 1443 1188 488 0 14 204 242 251 0 0 0 0 0 0 0 0 0 0 0 0 0 0 0 0 0 0 0 0 0 0 1 2 2 8 19 41 82 133 155 204 233 295 435 545 566 606 636 821 870 879 793 684 592 529 498 494
65 268 589 590 646 864 1081 1153 1213 1264 1339 1388 1424 1448 1482 1419 1476 1206 1090 908 866 789 756 807 889 1086 1330 1472 1455 1310 645 432 9 0 192 228 222 0 0 0 0 0 0 0 0 0 0 0 0 0 0 0 0 0 0 0 0 0 0 0 1 1 0 18 24 76 122 152 210 221 219 332 478 366 505 518 394 460 587 588 540 437 48 6 4
114 390 724 793 781 914 1095 1204 1268 1348 1398 1495 1552 1507 1407 1315 1273 1113 903 804 764 704 704 793 951 1216 1413 1465 1371 834 562 446 0 0 92 218 36 0 0 0 0 0 0 0 0 0 0 0 0 0 0 0 0 0 0 0 0 0 0 0 0 0 2 4 50 94 141 154 188 251 295 359 356 389 468 373 420 388 334 250 183 199 90 14 4
239 452 753 920 925 1041 1165 1211 1307 1388 1476 1590 1677 1588 1406 1292 1253 1283 1020 693 643 668 763 897 1091 1307 1457 1421 1069 723 666 417 0 0 0 139 179 45 0 0 0 0 0 0 0 0 0 0 0 0 0 0 0 0 0 0 0 0 0 0 0 0 0 3 26 82 167 178 191 262 257 280 338 416 585 570 470 356 312 173 102 318 306 291 330
345 455 701 970 1031 1111 1185 1292 1357 1458 1527 1632 1739 1664 1512 1396 1393 1490 1334 1055 906 834 828 1011 1263 1450 1486 1244 862 752 678 0 0 0 0 0 206 113 0 0 0 0 0 0 0 0 0 0 0 0 0 14 0 0 0 0 0 0 0 0 0 0 0 0 1 53 112 131 218 282 336 281 288 408 576 495 496 385 167 241 179 270 77 4 4
426 534 666 863 998 1120 1224 1301 1392 1467 1519 1555 1592 1601 1514 1416 1431 1447 1307 1171 1045 837 910 1096 1349 1474 1322 1030 823 881 207 0 0 0 0 0 83 187 0 0 0 0 0 0 0 0 0 0 0 0 9 30 5 0 0 0 0 0 0 0 0 0 0 0 0 17 77 154 218 312 410 443 447 507 586 589 398 274 101 15 162 198 40 4 4
686 794 838 838 919 1026 1149 1267 1350 1423 1470 1522 1514 1468 1416 1379 1352 1270 1166 1100 966 859 1024 1263 1354 1285 1152 958 965 767 190 0 0 0 0 0 0 0 0 0 0 0 0 0 0 0 0 0 0 0 47 99 36 0 0 0 0 0 0 0 0 0 0 1 2 13 86 139 182 280 364 466 472 434 444 314 282 306 143 8 3 138 245 4 4
837 1015 1029 982 976 1039 1049 1158 1256 1350 1442 1510 1463 1406 1423 1367 1243 1160 1095 1031 919 928 1062 1194 1204 1138 1082 1098 957 635 0 0 0 0 0 0 0 0 0 0 0 0 0 0 0 0 0 0 0 1 54 206 199 52 0 0 0 0 0 0 0 0 0 1 2 4 24 77 128 224 288 362 449 491 533 410 254 132 74 9 52 47 2 69 3
893 1063 1132 1114 1100 1106 1065 1123 1187 1311 1496 1477 1442 1552 1539 1328 1163 1113 1066 986 926 983 1072 1088 1097 1170 1204 1130 924 537 0 0 0 0 0 0 0 0 0 0 0 0 0 0 0 0 0 0 0 20 182 182 180 222 230 88 4 3 0 0 0 0 0 0 1 4 18 86 156 201 247 348 372 411 301 175 113 55 44 0 0 97 121 156 94
863 1087 1179 1206 1212 1188 1192 1201 1286 1510 1562 1469 1533 1682 1581 1344 1120 1070 1022 970 958 990 1034 1087 1178 1261 1246 1116 880 510 0 0 0 0 0 0 0 0 0 0 0 0 0 0 0 0 0 0 0 8 84 183 341 195 158 141 158 140 58 0 0 0 0 1 2 3 17 44 84 200 323 346 339 371 348 323 245 92 4 0 71 103 51 0 0
777 1021 1153 1206 1232 1286 1325 1393 1491 1618 1565 1446 1569 1673 1652 1476 1170 1010 958 957 979 1005 1065 1190 1315 1320 1235 1044 828 321 0 0 0 0 0 0 0 0 0 0 0 0 0 0 0 0 0 0 0 0 0 12 72 252 207 85 70 89 29 31 20 2 0 1 0 2 6 20 54 114 239 359 390 369 285 206 230 158 67 88 103 96 0 0 0
604 850 1047 1167 1256 1344 1406 1478 1566 1659 1572 1491 1502 1497 1486 1343 1167 987 940 976 1030 1104 1184 1307 1426 1346 1186 991 743 291 0 7 0 0 1 0 0 0 0 0 0 0 0 0 0 0 0 0 0 0 0 56 14 8 88 101 88 112 84 9 2 15 20 6 0 20 4 14 24 47 156 260 349 360 320 149 44 40 90 94 40 0 0 0 0
534 619 856 1078 1241 1363 1454 1516 1576 1670 1602 1471 1342 1242 1185 1133 1077 1010 991 1032 1128 1209 1299 1375 1392 1223 1036 888 702 0 5 89 0 0 0 0 0 0 0 0 0 0 0 0 0 0 0 0 0 0 0 16 0 0 0 0 98 84 35 60 79 26 9 28 12 2 6 0 16 18 104 137 231 229 248 138 118 72 108 70 0 0 0 0 4
670 673 744 954 1202 1623 1758 1598 1622 1646 1534 1444 1396 1304 1130 1092 1064 1049 1046 1111 1225 1304 1330 1363 1276 1146 987 870 648 0 1 91 0 0 0 0 0 0 0 0 0 0 0 0 0 0 0 0 0 0 0 0 0 0 0 0 0 0 0 0 1 5 0 0 1 0 0 0 8 161 137 250 245 198 274 224 174 127 110 18 30 13 2 4 9
871 782 703 885 1352 1870 1919 1704 1712 1622 1477 1440 1440 1282 1117 1099 1095 1089 1118 1212 1275 1305 1303 1246 1156 1046 942 784 540 0 0 3 0 0 0 0 0 0 0 0 0 0 0 0 0 0 0 0 0 0 1 15 74 2 0 0 0 0 0 0 0 0 0 0 0 0 0 0 152 212 240 248 247 149 283 328 294 249 202 174 214 162 100 194 141
1013 922 873 1111 1630 2017 2004 1803 1692 1583 1491 1427 1438 1329 1162 1138 1147 1163 1208 1274 1311 1275 1230 1124 1064 1036 947 767 582 0 0 0 0 0 0 0 0 0 0 0 0 0 0 0 0 0 0 0 0 0 0 0 4 2 0 0 0 0 0 0 0 0 0 0 0 0 0 2 113 210 231 258 324 394 419 458 410 428 412 323 253 188 148 46 5
1029 1091 1080 1233 1886 2273 2130 1874 1724 1630 1548 1482 1458 1415 1256 1223 1220 1217 1271 1327 1334 1320 1304 1194 1111 999 881 742 563 24 0 0 0 0 0 0 0 0 0 0 0 69 0 0 0 0 0 0 0 0 0 0 0 0 0 0 0 0 0 0 0 0 0 0 0 0 0 0 0 190 234 237 239 191 181 172 158 248 418 300 194 271 148 46 36
1126 1179 1172 1251 1849 2409 2263 1931 1747 1645 1549 1501 1437 1344 1289 1277 1277 1284 1301 1326 1338 1403 1302 1204 1093 941 814 711 511 48 0 0 0 0 0 0 0 0 0 0 11 112 0 0 0 0 0 0 0 0 0 0 0 0 0 0 0 0 0 0 0 0 0 0 0 0 0 0 0 94 216 230 233 231 220 208 199 250 531 320 190 252 119 126 91
1196 1218 1268 1281 1748 2483 2444 2056 1794 1640 1556 1481 1382 1293 1264 1328 1296 1290 1328 1340 1393 1398 1323 1174 1019 875 764 651 459 70 120 0 0 0 0 0 0 0 0 0 0 0 0 0 0 0 0 0 0 0 0 0 0 0 0 0 0 0 0 0 0 0 0 0 0 0 0 0 0 0 42 222 244 259 267 267 265 248 300 302 227 336 198 179 226
1112 1180 1237 1390 1763 2491 2600 2236 1924 1718 1586 1466 1357 1296 1291 1305 1312 1336 1377 1426 1493 1425 1254 1070 923 842 759 609 443 0 0 0 0 0 0 0 0 0 0 0 32 0 0 0 0 0 0 0 0 0 0 0 0 0 0 0 0 0 0 0 0 0 0 0 0 0 0 0 0 0 0 203 225 240 242 246 258 261 247 230 283 344 362 339 274
1130 1100 1172 1396 1798 2450 2764 2446 2121 1852 1630 1447 1348 1312 1314 1354 1372 1391 1505 1552 1518 1417 1200 1073 972 900 798 660 460 122 0 0 0 0 0 0 0 0 0 0 0 0 0 0 0 0 0 0 0 0 0 0 0 0 0 0 0 0 0 0 0 0 0 0 0 0 0 0 0 0 0 0 0 0 0 0 0 0 2 116 224 213 399 438 392
1333 1284 1324 1572 1807 2299 2796 2659 2348 2045 1781 1579 1407 1350 1361 1469 1535 1593 1639 1641 1532 1328 1168 1070 1019 973 874 734 547 362 0 0 0 0 0 0 0 0 0 0 0 0 0 0 0 0 0 0 0 0 0 0 0 0 0 0 0 0 0 0 0 0 0 0 0 0 0 0 0 0 0 0 0 0 0 0 0 0 0 0 1 5 7 108 217
1558 1725 1871 1945 1968 2166 2624 2760 2551 2269 2016 1774 1612 1478 1466 1590 1711 1752 1736 1634 1502 1371 1240 1116 1042 1002 964 841 623 382 0 0 0 0 0 0 0 0 0 8 0 0 0 0 0 0 0 0 0 0 0 0 0 0 0 0 0 0 0 0 0 0 0 0 0 0 0 0 0 0 0 0 0 0 0 0 0 0 0 0 0 0 0 0 0
2170 2220 2231 2173 2142 2228 2490 2684 2646 2430 2221 2018 1836 1692 1635 1636 1718 1732 1729 1650 1560 1457 1345 1230 1140 1124 1118 1050 790 483 53 0 0 0 0 0 0 0 0 0 0 0 0 0 0 0 0 0 0 0 0 0 0 0 0 0 0 0 0 0 0 0 0 0 0 0 0 0 0 0 0 0 0 0 0 0 0 0 0 0 0 0 0 0 0
2335 2409 2436 2386 2306 2362 2545 2716 2681 2572 2404 2193 1998 1834 1737 1683 1676 1658 1647 1566 1519 1467 1432 1295 1236 1254 1290 1244 1048 659 260 170 48 0 0 0 0 0 0 0 0 0 0 0 0 0 0 0 0 0 0 0 0 0 0 0 0 0 0 21 8 0 0 0 0 0 0 0 0 0 0 0 0 0 0 0 0 0 0 0 0 0 0 0 0
2498 2548 2606 2615 2564 2582 2750 2773 2724 2661 2571 2380 2200 1976 1780 1712 1632 1574 1504 1520 1490 1476 1433 1365 1386 1460 1546 1498 1304 816 342 212 202 125 45 15 101 54 0 0 0 0 0 0 0 0 0 0 0 0 0 1 0 0 2 24 4 4 6 6 0 0 0 0 0 0 0 0 0 0 0 0 0 0 0 0 0 0 0 0 0 0 0 0 0
2695 2674 2669 2697 2737 2758 2971 2779 2660 2642 2582 2494 2316 2140 1948 1747 1614 1553 1538 1487 1511 1478 1461 1464 1561 1665 1720 1622 1410 906 357 266 280 267 150 0 0 0 0 0 0 0 0 0 0 0 0 0 0 0 1 1 9 20 22 34 4 0 0 0 0 0 0 0 0 0 0 0 0 0 0 0 0 0 0 0 0 0 0 0 0 0 0 0 0
2808 2944 2961 2915 2880 2914 3021 3022 2754 2596 2605 2540 2460 2320 2165 2000 1820 1686 1628 1615 1594 1564 1500 1553 1668 1790 1799 1688 1358 886 329 304 330 352 290 102 77 0 0 0 0 0 0 0 0 0 0 0 0 0 0 0 0 0 0 2 1 0 0 0 0 18 14 0 0 0 0 0 0 0 0 0 0 0 0 0 0 0 0 0 0 0 0 0 0
2435 2533 2802 2998 3080 3121 3163 3162 2802 2605 2673 2625 2587 2419 2272 2197 2164 2153 2128 2041 1978 1954 1974 1975 2029 1980 1844 1618 1244 777 351 360 406 380 318 225 218 8 0 0 0 0 0 0 0 0 0 0 0 0 0 0 0 0 0 0 0 0 0 0 0 0 0 0 0 0 0 0 0 0 0 0 0 0 0 0 0 0 0 0 0 0 0 0 0
2376 2601 2724 2978 3159 3257 3130 3006 2956 2754 2519 2284 2358 2716 2641 2492 2484 2415 2300 2385 2376 2389 2408 2455 2400 2237 2083 1482 880 485 354 410 414 357 297 225 216 42 0 0 0 0 0 0 0 0 0 0 0 0 0 0 0 0 0 0 0 0 0 0 0 0 0 0 0 0 0 0 0 0 0 0 0 0 0 0 0 0 0 0 0 0 0 0 0
2192 2468 2591 2686 2817 2856 2509 2455 2765 2827 2806 2760 2636 2447 2628 2614 2615 2585 2500 2544 2657 2675 2569 2510 2350 1869 1402 1076 700 508 417 436 444 363 304 264 243 231 96 0 0 0 0 0 0 0 0 0 0 0 0 0 0 0 0 0 0 0 0 0 0 0 0 0 0 0 0 0 0 0 0 0 0 0 0 0 0 0 0 0 0 0 0 0 0
1804 1728 1848 2175 2353 2410 2078 2233 2583 2720 2644 2558 2876 2893 2796 2927 2846 2745 2663 2739 2660 2643 2602 2315 2046 1599 1367 834 584 499 374 337 330 350 384 413 316 202 114 15 0 0 0 0 0 0 0 0 0 0 0 0 0 0 0 0 0 0 0 0 0 0 0 0 0 0 0 0 0 0 0 0 0 0 0 0 0 0 0 0 0 0 0 0 0
1999 1737 1676 1860 2170 2422 2595 2586 2506 2564 2344 1896 2228 2436 2994 2973 2702 2660 2553 2502 2437 2278 2415 2169 1558 1364 1117 842 661 544 484 428 395 388 447 420 296 233 200 45 0 0 0 0 0 0 0 0 0 0 0 0 0 0 0 0 0 0 0 0 0 0 0 0 0 0 0 0 0 0 0 0 0 0 0 0 0 0 0 0 0 0 0 0 0
3077 3091 2880 2658 1970 1778 1632 1736 1744 1944 1887 1957 1670 1621 2044 2477 2626 2276 2099 1942 1958 1924 1639 1548 1298 1334 1180 996 796 641 530 434 378 383 506 502 306 208 62 0 0 0 0 0 0 0 0 0 0 0 0 0 0 0 0 0 0 0 0 0 0 0 0 0 0 0 0 0 0 0 0 0 0 0 0 0 0 0 0 0 0 0 0 0 0
2560 2490 2504 2554 2442 2040 1915 1768 1876 2098 2121 1978 1836 2091 2363 2512 2204 2074 2130 2093 2084 2078 2190 1532 1046 1252 1198 954 788 669 528 435 361 398 550 510 303 220 37 0 0 0 0 0 0 0 0 0 0 0 0 0 0 0 0 0 0 0 0 0 0 0 0 0 0 0 0 0 0 0 0 0 0 0 0 0 0 0 0 0 0 0 0 0 0
2204 2143 2090 1891 1755 1703 1599 1752 1753 1629 1488 1596 1730 1731 1650 1341 1154 1337 1598 1943 2034 2068 2080 1614 1684 1406 1124 866 701 560 405 367 408 433 592 527 258 247 0 0 0 0 0 0 0 0 0 0 0 0 0 0 0 0 0 0 0 0 0 0 0 0 0 0 0 0 0 0 0 0 0 0 0 0 0 0 0 0 0 0 0 0 0 0 0
2050 1969 1874 1789 1618 1503 1329 1302 1124 1016 951 879 775 674 541 466 400 446 733 1100 1512 2000 1913 1256 1260 1164 1006 849 677 494 471 460 414 449 594 520 310 208 0 0 0 0 0 0 0 0 0 0 0 0 0 0 0 0 0 0 0 0 0 0 0 0 0 0 0 0 0 0 0 0 0 0 0 0 0 0 0 0 0 0 0 0 0 0 0
1643 1906 1907 1805 1663 1494 1513 1587 1589 1098 668 559 658 802 779 761 707 514 445 764 1208 1581 1751 1656 1411 1227 1052 911 702 508 486 471 444 484 613 591 380 247 0 0 0 0 0 0 0 0 0 0 0 0 0 0 0 0 0 0 0 0 0 0 0 0 0 0 0 0 0 0 0 0 0 0 0 0 0 0 0 0 0 0 0 0 0 0 0
1403 1502 1764 1898 1868 1569 1130 1209 1471 1728 1892 1762 1660 1588 1661 1752 1657 1682 1716 1810 1948 2012 1894 1658 1339 1210 1031 930 772 598 552 452 495 564 617 601 467 239 0 0 0 0 0 0 0 0 0 0 0 0 0 0 0 0 0 0 0 0 0 0 0 0 0 0 0 0 0 0 0 0 0 0 0 0 0 0 0 0 0 0 0 0 0 0 0
1270 1374 1404 1546 1649 1725 1457 1144 1402 1648 1700 1736 1818 1950 2070 1856 1662 1731 1863 2072 2096 1724 1690 1542 1206 1128 981 805 714 644 514 504 551 608 637 601 368 0 0 0 0 0 0 0 0 0 0 0 0 0 0 0 0 0 0 0 0 0 0 0 0 0 0 0 0 0 0 0 0 0 0 0 0 0 0 0 0 0 0 0 0 0 0 0 0
1086 1130 1294 1367 1373 1352 1528 1483 1024 1083 1377 1434 1461 1604 1718 1668 1582 1515 1722 1962 1807 1575 1294 1279 1182 1066 852 759 698 542 508 577 562 523 387 111 0 0 0 0 0 0 0 0 0 0 0 0 0 0 0 0 0 0 0 0 0 0 0 0 0 0 0 0 0 0 0 0 0 0 0 0 0 0 0 0 0 0 0 0 0 0 0 0 0
1123 1005 1044 1173 1307 1326 1282 1380 1354 1084 991 1084 1263 1208 1178 1174 1263 1393 1663 1894 1731 1483 1451 1229 988 770 809 782 629 530 589 572 476 301 0 0 0 0 0 0 0 0 0 0 0 0 0 0 0 0 0 0 0 0 0 0 0 0 0 0 0 0 0 0 0 0 0 0 0 0 0 0 0 0 0 0 0 0 0 0 0 0 0 0 0
1451 1022 939 1030 1137 1168 1154 1154 1131 1241 1308 1223 1274 1325 1420 1440 1231 1048 1448 1784 1886 1795 1649 1349 1000 751 692 622 598 550 610 522 476 183 0 0 0 0 0 0 0 0 0 0 0 0 0 0 0 0 0 0 0 0 0 0 0 0 0 0 0 0 0 0 0 0 0 0 0 0 0 0 0 0 0 0 0 0 0 0 0 0 0 0 0
1772 1445 1130 925 974 1024 1054 1030 1018 950 1069 1100 1080 1127 1226 1278 1150 1021 1050 1473 1773 1778 1640 1411 1088 744 635 593 552 630 613 566 524 300 0 0 0 0 0 0 0 0 0 0 0 0 0 0 0 0 0 0 0 0 0 0 0 0 0 0 0 0 0 0 0 0 0 0 0 0 0 0 0 0 0 0 0 0 0 0 0 0 0 0 0
1859 1770 1474 1186 869 892 958 1023 1047 1052 1056 1026 973 979 981 957 920 854 820 858 1165 1364 1300 1078 846 708 660 596 647 703 677 581 333 0 0 0 0 0 0 0 0 0 0 0 0 0 0 0 0 0 0 0 0 0 0 0 0 0 0 0 0 0 0 0 0 0 0 0 0 0 0 0 0 0 0 0 0 0 0 0 0 0 0 0 0
1808 1845 1782 1457 1150 884 815 839 891 928 926 926 1046 1078 981 995 1057 968 888 828 832 826 901 976 780 684 665 736 811 772 648 536 331 0 0 0 0 0 0 0 0 0 0 0 0 0 0 0 0 0 0 0 0 0 0 0 0 0 0 0 0 0 0 0 0 0 0 0 0 0 0 0 0 0 0 0 0 0 0 0 0 0 0 0 0
1556 1708 1798 1727 1380 1126 864 763 755 795 843 882 1002 1016 998 1224 1170 1077 964 869 821 778 770 756 718 740 822 896 888 797 703 578 346 0 0 0 0 0 0 0 0 0 0 0 0 0 0 0 0 0 0 0 0 0 0 0 0 0 0 0 0 0 0 0 0 0 0 0 0 0 0 0 0 0 0 0 0 0 0 0 0 0 0 0 0
1318 1472 1705 1815 1712 1378 1108 1012 904 792 788 927 996 946 1063 1270 1200 1068 978 964 968 908 814 772 799 902 982 990 940 811 734 610 390 8 0 0 0 0 0 0 0 0 0 0 0 0 0 0 0 0 0 0 0 0 0 0 0 0 0 0 0 0 0 0 0 0 0 0 0 0 0 0 0 0 0 0 0 0 0 0 0 0 0 0 0
1164 1306 1513 1742 1758 1656 1434 1148 1020 908 843 881 1004 1017 1169 1318 1275 1155 1119 1100 1038 966 884 852 960 1077 1102 1056 952 885 790 618 246 0 0 0 0 0 0 0 0 0 0 0 0 0 0 0 0 0 0 0 0 0 0 0 0 0 0 0 0 0 0 0 0 0 0 0 0 0 0 0 0 0 0 0 0 0 0 0 0 0 0 0 0
1533 1513 1498 1542 1656 1667 1572 1445 1187 1042 940 865 966 1046 1103 1318 1376 1309 1288 1238 1145 1026 940 1031 1136 1183 1186 1131 1022 843 607 222 0 0 0 0 0 0 0 0 0 0 0 0 0 0 0 0 0 0 0 0 0 0 0 0 0 0 0 0 0 0 0 0 0 0 0 0 0 0 0 0 0 0 0 0 0 0 0 0 0 0 0 0 0
1419 1564 1720 1769 1660 1569 1471 1436 1416 1236 1043 922 897 1018 1082 1155 1315 1363 1371 1394 1310 1187 1148 1215 1278 1313 1251 1168 910 596 335 0 0 0 0 0 0 0 0 0 0 0 0 0 0 0 0 0 0 0 0 0 0 0 0 0 0 0 0 0 0 0 0 0 0 0 0 0 0 0 0 0 0 0 0 0 0 0 0 0 0 0 0 0 0
Wind_Speed
nan 20 22 21 22 20 20 21 19 20 19 19 17 14 14 15 16 18 17 14 13 13 13 13 14 15 17 16 17 17 18 19 nan nan 23 25 26 nan nan nan nan nan nan nan nan nan nan nan nan nan nan nan nan nan nan nan nan nan nan nan nan nan nan nan nan nan 21 18 14 9 7 8 11 9 10 8 10 12 17 16 16 18 20 20 22
nan 22 22 22 20 21 20 21 21 20 19 19 16 15 15 17 19 21 19 14 14 14 14 14 14 16 17 17 17 18 18 19 nan nan 24 25 26 nan nan nan nan nan nan nan nan nan nan nan nan nan nan nan nan nan nan nan nan nan nan nan nan nan nan nan nan nan 22 19 15 11 9 8 11 11 10 9 9 7 15 13 12 14 nan nan nan
23 24 23 22 21 22 22 21 21 20 19 19 16 16 18 20 20 21 19 17 16 15 15 15 15 16 18 18 18 19 19 19 nan nan nan 25 nan nan nan nan nan nan nan nan nan nan nan nan nan nan nan nan nan nan nan nan nan nan nan nan nan nan nan nan nan nan 23 22 18 15 10 8 8 9 11 10 9 9 13 11 9 8 nan nan nan
25 25 23 22 22 23 22 21 21 20 19 18 16 17 20 21 22 22 19 18 18 17 16 16 17 17 19 20 20 20 21 20 nan nan nan 25 27 nan nan nan nan nan nan nan nan nan nan nan nan nan nan nan nan nan nan nan nan nan nan nan nan nan nan nan nan nan 24 23 20 17 13 9 7 6 10 11 10 10 10 9 9 9 10 10 11
26 25 24 23 23 22 21 21 20 20 18 18 16 18 21 23 22 22 20 19 19 19 18 17 17 18 19 21 22 22 22 nan nan nan nan nan 25 26 nan nan nan nan nan nan nan nan nan nan nan nan nan nan nan nan nan nan nan nan nan nan nan nan nan nan nan nan 23 22 21 18 16 12 9 8 8 11 10 9 8 7 6 7 nan nan nan
26 25 25 24 23 21 21 22 20 19 18 17 18 20 22 23 23 22 21 21 20 19 19 17 17 19 20 21 22 23 23 nan nan nan nan nan nan 24 nan nan nan nan nan nan nan nan nan nan nan nan nan nan nan nan nan nan nan nan nan nan nan nan nan nan nan nan nan 21 21 20 17 14 11 8 7 9 10 10 8 nan 5 3 nan nan nan
28 27 25 23 23 22 22 21 21 21 19 19 22 23 24 24 24 23 21 22 22 21 19 19 17 19 21 22 23 24 24 nan nan nan nan nan nan nan nan nan nan nan nan nan nan nan nan nan nan nan nan nan nan nan nan nan nan nan nan nan nan nan nan nan nan nan nan 19 19 18 17 14 12 9 8 9 8 8 8 nan nan 3 2 nan nan
28 26 25 24 23 22 22 23 23 22 22 23 24 25 26 26 25 24 23 22 22 23 21 20 20 19 21 22 23 23 nan nan nan nan nan nan nan nan nan nan nan nan nan nan nan nan nan nan nan nan nan 21 24 nan nan nan nan nan nan nan nan nan nan nan nan nan nan nan 18 18 15 13 10 9 9 9 8 7 nan nan nan nan nan nan nan
28 26 25 23 22 24 25 25 25 24 24 25 26 27 26 26 26 25 23 22 23 24 23 22 22 22 21 22 22 21 nan nan nan nan nan nan nan nan nan nan nan nan nan nan nan nan nan nan nan nan 20 18 19 22 23 nan nan nan nan nan nan nan nan nan nan nan nan nan 20 19 16 12 9 10 9 8 8 nan nan nan nan nan 7 4 nan
28 27 24 22 24 27 27 26 25 25 25 25 26 26 26 26 26 25 24 24 24 24 24 22 22 22 23 21 21 21 nan nan nan nan nan nan nan nan nan nan nan nan nan nan nan nan nan nan nan nan nan 17 17 19 21 22 21 19 nan nan nan nan nan nan nan nan nan nan nan 20 16 12 10 9 9 10 12 nan nan nan nan 11 nan nan nan
29 26 23 25 27 28 28 26 27 24 24 26 26 26 26 27 27 26 26 24 24 24 24 23 21 21 21 22 22 20 nan nan nan nan nan nan nan nan nan nan nan nan nan nan nan nan nan nan nan nan nan nan nan 17 20 nan nan nan nan nan nan nan nan nan nan nan nan nan nan 20 18 15 13 12 12 12 13 12 nan nan 12 nan nan nan nan
29 27 27 28 27 26 27 28 27 25 25 24 25 25 26 27 26 26 26 26 24 25 24 22 21 20 21 22 22 20 nan nan nan nan nan nan nan nan nan nan nan nan nan nan nan nan nan nan nan nan nan nan nan nan nan 18 nan 19 nan nan nan nan nan nan nan nan nan nan nan nan 21 21 20 18 19 19 nan nan nan nan nan nan nan nan nan
31 31 31 28 25 26 28 28 27 26 24 24 24 24 24 25 26 26 25 25 26 24 23 22 20 21 22 23 22 nan nan nan nan nan nan nan nan nan nan nan nan nan nan nan nan nan nan nan nan nan nan nan nan nan nan nan nan nan nan nan nan nan nan nan nan nan nan nan nan nan 21 24 21 21 21 24 24 nan 19 nan nan nan nan nan nan
32 33 31 27 25 26 28 28 27 25 24 24 23 22 22 22 25 26 27 27 25 24 23 22 21 22 22 22 23 nan nan nan nan nan nan nan nan nan nan nan nan nan nan nan nan nan nan nan nan nan nan nan nan nan nan nan nan nan nan nan nan nan nan nan nan nan nan nan nan 17 20 22 20 21 21 24 22 20 19 nan nan nan nan nan nan
31 32 30 27 26 26 27 27 27 26 25 23 22 20 20 23 24 23 24 25 25 23 22 22 22 22 22 23 24 nan nan nan nan nan nan nan nan nan nan nan nan nan nan nan nan nan nan nan nan nan nan nan nan nan nan nan nan nan nan nan nan nan nan nan nan nan nan nan 11 13 16 17 18 19 20 20 19 19 18 17 16 16 16 18 14
30 30 28 26 24 25 26 27 29 28 25 23 22 20 20 21 21 22 24 26 28 28 25 24 23 23 23 24 24 nan nan nan nan nan nan nan nan nan nan nan nan nan nan nan nan nan nan nan nan nan nan nan nan nan nan nan nan nan nan nan nan nan nan nan nan nan nan nan 4 7 10 11 12 15 16 17 17 18 18 18 17 17 15 nan nan
30 28 27 26 24 25 26 28 29 28 26 24 21 20 20 20 21 22 24 25 27 26 25 24 23 23 23 23 25 nan nan nan nan nan nan nan nan nan nan nan nan nan nan nan nan nan nan nan nan nan nan nan nan nan nan nan nan nan nan nan nan nan nan nan nan nan nan nan nan 3 4 5 7 8 10 11 15 18 18 16 16 17 16 nan nan
33 29 26 25 25 25 26 27 28 28 26 21 20 20 21 21 20 21 23 26 26 26 27 26 24 23 23 24 24 nan nan nan nan nan nan nan nan nan nan nan nan 27 nan nan nan nan nan nan nan nan nan nan nan nan nan nan nan nan nan nan nan nan nan nan nan nan nan nan nan nan 7 6 6 7 7 9 10 15 17 17 19 18 17 16 nan
32 27 24 24 25 26 27 27 28 27 23 20 21 22 21 20 22 23 25 27 28 28 27 26 25 24 24 25 27 nan 26 nan nan nan nan nan nan nan nan nan nan nan nan nan nan nan nan nan nan nan nan nan nan nan nan nan nan nan nan nan nan nan nan nan nan nan nan nan nan nan nan 7 5 6 8 9 9 11 14 17 19 18 18 18 18
27 27 27 28 27 26 26 26 26 26 22 22 24 24 26 27 25 26 28 28 28 27 27 26 27 25 25 25 26 nan nan nan nan nan nan nan nan nan nan nan nan nan nan nan nan nan nan nan nan nan nan nan nan nan nan nan nan nan nan nan nan nan nan nan nan nan nan nan nan nan nan 6 7 8 8 9 9 10 12 14 16 18 18 17 16
25 27 29 29 28 26 26 25 24 25 26 26 28 30 29 28 29 29 30 29 28 27 27 27 27 27 26 25 27 27 nan nan nan nan nan nan nan nan nan nan nan nan nan nan nan nan nan nan nan nan nan nan nan nan nan nan nan nan nan nan nan nan nan nan nan nan nan nan nan nan nan nan nan nan nan nan nan nan nan 12 13 15 17 18 18
21 22 23 24 24 24 25 25 26 28 30 33 32 31 32 32 32 32 31 30 28 28 28 27 27 27 26 26 26 27 nan nan nan nan nan nan nan nan nan nan nan nan nan nan nan nan nan nan nan nan nan nan nan nan nan nan nan nan nan nan nan nan nan nan nan nan nan nan nan nan nan nan nan nan nan nan nan nan nan nan nan nan nan 14 16
19 19 19 20 21 22 24 25 28 31 32 32 34 35 35 35 35 34 33 31 30 29 28 27 27 27 26 25 26 26 nan nan nan nan nan nan nan nan nan nan nan nan nan nan nan nan nan nan nan nan nan nan nan nan nan nan nan nan nan nan nan nan nan nan nan nan nan nan nan nan nan nan nan nan nan nan nan nan nan nan nan nan nan nan nan
19 18 18 18 20 22 24 25 27 31 33 37 38 39 37 37 37 35 33 32 30 29 27 27 26 26 26 26 25 25 nan nan nan nan nan nan nan nan nan nan nan nan nan nan nan nan nan nan nan nan nan nan nan nan nan nan nan nan nan nan nan nan nan nan nan nan nan nan nan nan nan nan nan nan nan nan nan nan nan nan nan nan nan nan nan
20 19 18 19 21 22 26 28 30 33 37 39 40 39 39 38 38 36 34 32 29 29 28 26 26 26 26 26 26 27 27 26 nan nan nan nan nan nan nan nan nan nan nan nan nan nan nan nan nan nan nan nan nan nan nan nan nan nan nan nan nan nan nan nan nan nan nan nan nan nan nan nan nan nan nan nan nan nan nan nan nan nan nan nan nan
18 18 19 22 22 25 27 28 30 34 38 37 37 37 38 38 37 36 33 31 30 29 28 27 26 27 27 27 28 28 27 27 26 26 nan nan 26 nan nan nan nan nan nan nan nan nan nan nan nan nan nan nan nan nan nan nan nan nan nan nan nan nan nan nan nan nan nan nan nan nan nan nan nan nan nan nan nan nan nan nan nan nan nan nan nan
20 21 22 23 26 28 28 29 32 35 38 39 38 36 36 36 36 34 33 32 30 28 28 28 29 29 29 28 28 27 27 28 27 26 27 nan nan nan nan nan nan nan nan nan nan nan nan nan nan nan nan nan nan nan nan nan nan nan nan nan nan nan nan nan nan nan nan nan nan nan nan nan nan nan nan nan nan nan nan nan nan nan nan nan nan
21 22 23 26 28 29 30 31 34 34 35 37 37 36 36 35 34 33 33 33 32 30 30 30 30 29 29 29 28 28 28 27 26 26 28 30 nan nan nan nan nan nan nan nan nan nan nan nan nan nan nan nan nan nan nan nan nan nan nan nan nan nan nan nan nan nan nan nan nan nan nan nan nan nan nan nan nan nan nan nan nan nan nan nan nan
23 28 33 34 32 33 34 36 36 36 37 37 43 44 41 36 34 35 34 33 32 32 31 30 29 28 30 29 29 29 28 26 25 27 31 33 34 nan nan nan nan nan nan nan nan nan nan nan nan nan nan nan nan nan nan nan nan nan nan nan nan nan nan nan nan nan nan nan nan nan nan nan nan nan nan nan nan nan nan nan nan nan nan nan nan
22 30 38 44 46 45 43 48 55 54 51 48 48 48 48 41 34 34 35 33 32 31 34 32 29 30 29 27 29 32 28 26 31 35 35 37 38 nan nan nan nan nan nan nan nan nan nan nan nan nan nan nan nan nan nan nan nan nan nan nan nan nan nan nan nan nan nan nan nan nan nan nan nan nan nan nan nan nan nan nan nan nan nan nan nan
22 24 29 37 44 51 56 57 58 50 41 42 44 38 35 42 46 38 35 36 35 35 30 34 38 36 34 33 32 32 35 37 38 35 36 35 35 34 nan nan nan nan nan nan nan nan nan nan nan nan nan nan nan nan nan nan nan nan nan nan nan nan nan nan nan nan nan nan nan nan nan nan nan nan nan nan nan nan nan nan nan nan nan nan nan
27 27 28 30 36 40 42 47 52 50 48 47 43 43 44 46 46 49 45 35 36 38 40 43 41 35 33 37 37 34 36 37 36 35 35 35 34 34 35 nan nan nan nan nan nan nan nan nan nan nan nan nan nan nan nan nan nan nan nan nan nan nan nan nan nan nan nan nan nan nan nan nan nan nan nan nan nan nan nan nan nan nan nan nan nan
31 30 29 31 33 34 35 32 37 50 54 50 45 46 48 46 44 39 42 47 45 42 44 46 43 36 32 36 38 37 36 34 33 32 33 34 35 34 34 nan nan nan nan nan nan nan nan nan nan nan nan nan nan nan nan nan nan nan nan nan nan nan nan nan nan nan nan nan nan nan nan nan nan nan nan nan nan nan nan nan nan nan nan nan nan
29 30 29 30 30 30 30 28 31 41 49 47 40 38 39 40 37 37 40 40 46 50 48 45 38 31 30 36 37 37 36 34 32 32 32 32 33 33 nan nan nan nan nan nan nan nan nan nan nan nan nan nan nan nan nan nan nan nan nan nan nan nan nan nan nan nan nan nan nan nan nan nan nan nan nan nan nan nan nan nan nan nan nan nan nan
29 32 34 28 25 27 28 27 24 28 36 36 33 31 35 37 37 40 39 39 40 41 43 37 29 29 31 33 35 36 34 31 30 29 29 29 32 34 nan nan nan nan nan nan nan nan nan nan nan nan nan nan nan nan nan nan nan nan nan nan nan nan nan nan nan nan nan nan nan nan nan nan nan nan nan nan nan nan nan nan nan nan nan nan nan
29 30 31 29 25 24 24 23 21 18 24 28 28 31 35 37 39 40 42 41 40 41 41 37 35 26 28 33 35 34 31 28 26 26 27 30 33 35 nan nan nan nan nan nan nan nan nan nan nan nan nan nan nan nan nan nan nan nan nan nan nan nan nan nan nan nan nan nan nan nan nan nan nan nan nan nan nan nan nan nan nan nan nan nan nan
30 31 31 30 28 27 26 24 20 15 12 15 19 21 24 29 32 36 39 39 40 40 38 38 37 34 32 33 33 29 26 23 23 24 27 30 32 28 nan nan nan nan nan nan nan nan nan nan nan nan nan nan nan nan nan nan nan nan nan nan nan nan nan nan nan nan nan nan nan nan nan nan nan nan nan nan nan nan nan nan nan nan nan nan nan
31 31 30 30 30 30 30 30 28 28 21 16 14 15 15 16 20 24 30 35 38 37 35 33 32 33 31 28 29 24 24 27 32 31 29 27 24 21 nan nan nan nan nan nan nan nan nan nan nan nan nan nan nan nan nan nan nan nan nan nan nan nan nan nan nan nan nan nan nan nan nan nan nan nan nan nan nan nan nan nan nan nan nan nan nan
34 35 35 31 29 30 30 31 31 30 28 25 21 18 15 12 12 14 16 20 24 25 25 25 24 24 25 28 25 24 25 23 23 23 25 24 22 20 nan nan nan nan nan nan nan nan nan nan nan nan nan nan nan nan nan nan nan nan nan nan nan nan nan nan nan nan nan nan nan nan nan nan nan nan nan nan nan nan nan nan nan nan nan nan nan
35 34 36 37 32 31 30 30 29 27 25 24 22 21 19 16 15 14 14 15 15 16 17 18 18 20 22 22 22 22 22 23 23 25 25 25 22 nan nan nan nan nan nan nan nan nan nan nan nan nan nan nan nan nan nan nan nan nan nan nan nan nan nan nan nan nan nan nan nan nan nan nan nan nan nan nan nan nan nan nan nan nan nan nan nan
37 37 37 36 35 32 31 30 28 26 24 22 21 20 19 18 17 17 17 16 16 16 16 17 18 20 20 22 26 26 24 24 24 24 24 24 nan nan nan nan nan nan nan nan nan nan nan nan nan nan nan nan nan nan nan nan nan nan nan nan nan nan nan nan nan nan nan nan nan nan nan nan nan nan nan nan nan nan nan nan nan nan nan nan nan
35 37 37 37 36 33 32 30 30 28 27 25 23 21 19 17 16 15 16 17 16 17 17 17 20 22 24 28 27 26 23 23 24 24 nan nan nan nan nan nan nan nan nan nan nan nan nan nan nan nan nan nan nan nan nan nan nan nan nan nan nan nan nan nan nan nan nan nan nan nan nan nan nan nan nan nan nan nan nan nan nan nan nan nan nan
33 34 33 34 33 31 30 29 31 31 29 27 24 24 23 22 19 16 15 16 17 19 20 22 23 25 26 26 27 26 22 24 23 23 nan nan nan nan nan nan nan nan nan nan nan nan nan nan nan nan nan nan nan nan nan nan nan nan nan nan nan nan nan nan nan nan nan nan nan nan nan nan nan nan nan nan nan nan nan nan nan nan nan nan nan
35 35 34 31 30 30 32 31 29 28 27 26 26 26 26 26 24 22 19 18 18 19 21 23 25 26 27 28 28 25 22 23 22 21 nan nan nan nan nan nan nan nan nan nan nan nan nan nan nan nan nan nan nan nan nan nan nan nan nan nan nan nan nan nan nan nan nan nan nan nan nan nan nan nan nan nan nan nan nan nan nan nan nan nan nan
37 37 36 35 32 31 30 30 30 28 28 28 28 27 27 27 26 24 22 21 21 22 23 24 25 26 27 27 26 25 22 21 20 nan nan nan nan nan nan nan nan nan nan nan nan nan nan nan nan nan nan nan nan nan nan nan nan nan nan nan nan nan nan nan nan nan nan nan nan nan nan nan nan nan nan nan nan nan nan nan nan nan nan nan nan
36 37 38 37 36 33 31 30 30 29 28 27 28 28 28 29 29 28 26 23 23 24 25 25 25 26 26 26 25 24 22 21 20 nan nan nan nan nan nan nan nan nan nan nan nan nan nan nan nan nan nan nan nan nan nan nan nan nan nan nan nan nan nan nan nan nan nan nan nan nan nan nan nan nan nan nan nan nan nan nan nan nan nan nan nan
35 37 37 38 37 36 33 33 32 29 28 28 27 27 28 28 29 29 27 25 25 26 26 26 26 26 26 25 24 22 22 20 19 nan nan nan nan nan nan nan nan nan nan nan nan nan nan nan nan nan nan nan nan nan nan nan nan nan nan nan nan nan nan nan nan nan nan nan nan nan nan nan nan nan nan nan nan nan nan nan nan nan nan nan nan
35 36 38 38 39 38 37 35 32 30 29 28 26 26 26 27 27 27 27 27 26 27 27 27 26 26 25 24 23 22 20 18 17 nan nan nan nan nan nan nan nan nan nan nan nan nan nan nan nan nan nan nan nan nan nan nan nan nan nan nan nan nan nan nan nan nan nan nan nan nan nan nan nan nan nan nan nan nan nan nan nan nan nan nan nan
36 36 36 37 39 38 38 36 33 32 30 29 28 27 27 27 26 27 27 27 27 27 28 27 26 25 23 22 22 21 20 18 17 nan nan nan nan nan nan nan nan nan nan nan nan nan nan nan nan nan nan nan nan nan nan nan nan nan nan nan nan nan nan nan nan nan nan nan nan nan nan nan nan nan nan nan nan nan nan nan nan nan nan nan nan
39 38 37 37 37 37 38 38 37 34 32 33 31 30 28 27 26 27 27 27 27 28 28 27 25 24 23 22 21 20 19 18 nan nan nan nan nan nan nan nan nan nan nan nan nan nan nan nan nan nan nan nan nan nan nan nan nan nan nan nan nan nan nan nan nan nan nan nan nan nan nan nan nan nan nan nan nan nan nan nan nan nan nan nan nan
43 41 40 38 38 38 39 39 36 35 32 33 32 32 30 28 27 27 27 27 27 28 27 26 26 25 23 21 20 19 19 nan nan nan nan nan nan nan nan nan nan nan nan nan nan nan nan nan nan nan nan nan nan nan nan nan nan nan nan nan nan nan nan nan nan nan nan nan nan nan nan nan nan nan nan nan nan nan nan nan nan nan nan nan nan
Wind_Direction
nan 198 205 203 204 203 200 199 195 197 202 206 207 204 206 211 222 232 236 237 243 249 255 262 270 274 280 287 296 301 307 315 nan nan 333 335 338 nan nan nan nan nan nan nan nan nan nan nan nan nan nan nan nan nan nan nan nan nan nan nan nan nan nan nan nan nan 355 355 350 342 322 324 314 308 303 283 268 262 266 265 256 250 249 252 254
nan 203 206 207 207 206 206 205 202 204 209 213 212 210 216 220 229 237 242 243 249 256 261 263 269 277 281 288 294 299 307 317 nan nan 333 335 338 nan nan nan nan nan nan nan nan nan nan nan nan nan nan nan nan nan nan nan nan nan nan nan nan nan nan nan nan nan 358 358 353 345 325 311 324 318 314 305 289 288 276 276 269 260 nan nan nan
203 206 209 209 207 208 210 211 209 210 214 216 216 218 224 230 234 241 244 247 249 258 266 270 275 279 283 291 297 303 311 321 nan nan nan 335 nan nan nan nan nan nan nan nan nan nan nan nan nan nan nan nan nan nan nan nan nan nan nan nan nan nan nan nan nan nan 359 357 358 353 343 326 321 323 324 325 311 286 274 268 266 266 nan nan nan
210 209 210 210 210 210 211 213 215 215 218 219 221 225 232 237 241 244 246 246 253 256 264 272 276 283 289 294 300 306 314 324 nan nan nan 337 340 nan nan nan nan nan nan nan nan nan nan nan nan nan nan nan nan nan nan nan nan nan nan nan nan nan nan nan nan nan 1 359 356 359 357 343 331 346 346 337 320 301 293 287 271 262 255 256 259
214 210 213 215 215 213 210 214 217 219 222 222 226 233 239 244 245 250 251 249 252 258 262 268 277 284 291 300 304 310 318 nan nan nan nan nan 340 343 nan nan nan nan nan nan nan nan nan nan nan nan nan nan nan nan nan nan nan nan nan nan nan nan nan nan nan nan 357 355 354 358 2 353 347 6 354 331 330 324 310 297 287 275 nan nan nan
212 213 213 218 218 217 214 213 215 220 222 222 230 236 241 246 252 252 257 261 258 258 268 271 278 285 291 299 304 308 316 nan nan nan nan nan nan 341 nan nan nan nan nan nan nan nan nan nan nan nan nan nan nan nan nan nan nan nan nan nan nan nan nan nan nan nan nan 356 356 355 359 5 359 356 0 353 349 347 339 nan 301 286 nan nan nan
214 214 213 216 220 220 219 215 215 217 217 219 225 232 239 246 253 259 260 266 269 268 269 273 276 286 293 297 302 308 314 nan nan nan nan nan nan nan nan nan nan nan nan nan nan nan nan nan nan nan nan nan nan nan nan nan nan nan nan nan nan nan nan nan nan nan nan 2 359 354 355 5 10 3 5 355 350 6 4 nan nan 8 11 nan nan
216 215 214 216 219 222 222 222 219 218 217 221 227 232 238 244 250 255 260 267 268 271 275 277 279 285 290 295 299 306 nan nan nan nan nan nan nan nan nan nan nan nan nan nan nan nan nan nan nan nan nan 359 353 nan nan nan nan nan nan nan nan nan nan nan nan nan nan nan 3 360 357 1 9 15 23 15 6 13 nan nan nan nan nan nan nan
217 215 215 216 219 223 225 224 223 222 223 227 233 236 241 246 250 255 257 257 257 264 268 276 281 284 286 293 299 304 nan nan nan nan nan nan nan nan nan nan nan nan nan nan nan nan nan nan nan nan 348 343 334 337 334 nan nan nan nan nan nan nan nan nan nan nan nan nan 9 10 3 3 17 32 32 28 24 nan nan nan nan nan 38 32 nan
217 215 215 214 219 225 228 228 228 226 226 231 237 242 246 250 253 256 256 256 259 262 270 274 281 287 291 295 298 302 nan nan nan nan nan nan nan nan nan nan nan nan nan nan nan nan nan nan nan nan nan 342 338 334 328 320 318 328 nan nan nan nan nan nan nan nan nan nan nan 23 20 23 27 36 36 33 34 nan nan nan nan 42 nan nan nan
217 216 213 215 221 227 230 230 231 230 229 232 238 244 248 251 254 255 256 257 261 264 269 277 279 285 292 295 299 300 nan nan nan nan nan nan nan nan nan nan nan nan nan nan nan nan nan nan nan nan nan nan nan 334 327 nan nan nan nan nan nan nan nan nan nan nan nan nan nan 35 42 51 57 56 61 55 59 55 nan nan 54 nan nan nan nan
216 213 213 217 222 228 230 232 232 231 231 235 241 245 249 254 256 258 258 260 258 259 268 273 279 284 286 290 294 299 nan nan nan nan nan nan nan nan nan nan nan nan nan nan nan nan nan nan nan nan nan nan nan nan nan 324 nan 318 nan nan nan nan nan nan nan nan nan nan nan nan 52 60 63 66 67 65 nan nan nan nan nan nan nan nan nan
217 216 216 217 221 227 231 233 233 234 233 237 242 247 254 256 258 259 260 257 258 264 269 272 279 283 285 291 294 nan nan nan nan nan nan nan nan nan nan nan nan nan nan nan nan nan nan nan nan nan nan nan nan nan nan nan nan nan nan nan nan nan nan nan nan nan nan nan nan nan 58 64 63 66 64 62 61 nan 56 nan nan nan nan nan nan
219 220 218 215 221 227 232 234 237 237 237 240 245 251 258 262 259 256 256 257 262 262 266 274 277 283 286 290 292 nan nan nan nan nan nan nan nan nan nan nan nan nan nan nan nan nan nan nan nan nan nan nan nan nan nan nan nan nan nan nan nan nan nan nan nan nan nan nan nan 52 61 64 60 61 58 57 52 47 45 nan nan nan nan nan nan
225 226 222 217 220 227 232 235 238 239 241 244 248 253 258 258 260 262 264 267 270 272 274 273 275 280 284 285 288 nan nan nan nan nan nan nan nan nan nan nan nan nan nan nan nan nan nan nan nan nan nan nan nan nan nan nan nan nan nan nan nan nan nan nan nan nan nan nan 55 56 59 59 55 51 52 52 49 48 42 30 34 34 35 40 45
226 231 230 225 222 225 233 235 237 238 240 243 248 251 254 260 265 260 258 259 257 257 260 265 276 280 281 284 286 nan nan nan nan nan nan nan nan nan nan nan nan nan nan nan nan nan nan nan nan nan nan nan nan nan nan nan nan nan nan nan nan nan nan nan nan nan nan nan 53 48 49 49 43 41 43 41 32 32 29 33 37 36 32 nan nan
213 223 230 232 229 228 232 236 237 238 239 243 247 253 257 258 257 257 261 261 265 265 267 269 271 276 280 282 288 nan nan nan nan nan nan nan nan nan nan nan nan nan nan nan nan nan nan nan nan nan nan nan nan nan nan nan nan nan nan nan nan nan nan nan nan nan nan nan nan 269 337 5 6 8 10 21 30 35 29 23 28 32 22 nan nan
212 213 219 230 234 234 235 239 240 239 239 244 250 254 257 255 262 261 266 266 267 266 266 269 270 273 280 286 287 nan nan nan nan nan nan nan nan nan nan nan nan 326 nan nan nan nan nan nan nan nan nan nan nan nan nan nan nan nan nan nan nan nan nan nan nan nan nan nan nan nan 249 274 302 316 333 351 10 28 21 12 18 16 8 11 nan
205 210 215 224 233 236 237 240 244 246 244 243 248 255 259 263 259 259 258 259 261 262 266 268 270 271 276 280 292 nan 291 nan nan nan nan nan nan nan nan nan nan nan nan nan nan nan nan nan nan nan nan nan nan nan nan nan nan nan nan nan nan nan nan nan nan nan nan nan nan nan nan 253 280 311 316 305 329 357 8 3 8 5 1 3 7
207 212 213 221 228 234 240 245 248 252 250 243 243 248 249 251 258 260 258 258 261 264 265 268 273 275 278 283 286 nan nan nan nan nan nan nan nan nan nan nan nan nan nan nan nan nan nan nan nan nan nan nan nan nan nan nan nan nan nan nan nan nan nan nan nan nan nan nan nan nan nan 272 280 293 303 312 325 339 350 356 357 357 358 4 5
213 213 224 229 231 236 240 245 251 252 250 248 246 246 249 253 253 258 261 260 263 264 268 268 270 274 278 281 280 284 nan nan nan nan nan nan nan nan nan nan nan nan nan nan nan nan nan nan nan nan nan nan nan nan nan nan nan nan nan nan nan nan nan nan nan nan nan nan nan nan nan nan nan nan nan nan nan nan nan 337 346 352 353 353 355
228 221 227 238 243 245 245 244 246 250 250 250 251 251 249 251 253 259 261 266 267 267 267 269 271 273 275 278 278 283 nan nan nan nan nan nan nan nan nan nan nan nan nan nan nan nan nan nan nan nan nan nan nan nan nan nan nan nan nan nan nan nan nan nan nan nan nan nan nan nan nan nan nan nan nan nan nan nan nan nan nan nan nan 353 353
231 229 235 246 252 255 253 251 248 248 252 255 257 256 251 253 255 259 263 265 266 266 268 269 272 273 274 275 275 279 nan nan nan nan nan nan nan nan nan nan nan nan nan nan nan nan nan nan nan nan nan nan nan nan nan nan nan nan nan nan nan nan nan nan nan nan nan nan nan nan nan nan nan nan nan nan nan nan nan nan nan nan nan nan nan
242 241 245 250 254 252 253 253 252 251 253 254 254 254 253 252 253 257 261 264 266 267 268 269 271 276 278 275 275 276 nan nan nan nan nan nan nan nan nan nan nan nan nan nan nan nan nan nan nan nan nan nan nan nan nan nan nan nan nan nan nan nan nan nan nan nan nan nan nan nan nan nan nan nan nan nan nan nan nan nan nan nan nan nan nan
245 245 247 249 248 245 244 246 249 250 252 255 256 252 251 251 251 253 258 261 264 267 266 268 274 275 277 278 275 271 272 276 nan nan nan nan nan nan nan nan nan nan nan nan nan nan nan nan nan nan nan nan nan nan nan nan nan nan nan nan nan nan nan nan nan nan nan nan nan nan nan nan nan nan nan nan nan nan nan nan nan nan nan nan nan
248 248 245 244 243 244 246 247 248 249 252 253 256 256 254 252 254 256 258 260 263 266 266 268 270 272 274 272 271 272 276 279 285 294 nan nan 310 nan nan nan nan nan nan nan nan nan nan nan nan nan nan nan nan nan nan nan nan nan nan nan nan nan nan nan nan nan nan nan nan nan nan nan nan nan nan nan nan nan nan nan nan nan nan nan nan
237 239 242 242 243 246 251 252 250 249 249 249 250 254 256 256 256 258 261 263 264 265 266 268 268 269 271 273 273 276 280 282 287 294 298 nan nan nan nan nan nan nan nan nan nan nan nan nan nan nan nan nan nan nan nan nan nan nan nan nan nan nan nan nan nan nan nan nan nan nan nan nan nan nan nan nan nan nan nan nan nan nan nan nan nan
270 266 263 259 255 253 252 254 255 252 251 251 251 252 254 256 258 261 264 265 265 266 265 268 271 274 277 277 279 280 282 285 294 300 301 301 nan nan nan nan nan nan nan nan nan nan nan nan nan nan nan nan nan nan nan nan nan nan nan nan nan nan nan nan nan nan nan nan nan nan nan nan nan nan nan nan nan nan nan nan nan nan nan nan nan
272 260 255 259 263 263 259 254 252 247 247 246 238 235 240 247 248 248 249 257 266 271 271 271 275 277 278 284 286 285 282 291 302 302 301 303 303 nan nan nan nan nan nan nan nan nan nan nan nan nan nan nan nan nan nan nan nan nan nan nan nan nan nan nan nan nan nan nan nan nan nan nan nan nan nan nan nan nan nan nan nan nan nan nan nan
263 261 256 254 253 254 255 252 243 240 238 237 236 233 229 237 246 251 253 260 264 266 273 275 279 277 276 277 284 292 300 305 301 305 307 306 303 nan nan nan nan nan nan nan nan nan nan nan nan nan nan nan nan nan nan nan nan nan nan nan nan nan nan nan nan nan nan nan nan nan nan nan nan nan nan nan nan nan nan nan nan nan nan nan nan
268 269 270 268 267 269 268 261 253 249 248 251 251 250 245 235 232 241 251 256 262 269 269 264 269 272 279 277 268 264 275 289 301 302 300 302 306 309 nan nan nan nan nan nan nan nan nan nan nan nan nan nan nan nan nan nan nan nan nan nan nan nan nan nan nan nan nan nan nan nan nan nan nan nan nan nan nan nan nan nan nan nan nan nan nan
277 281 283 281 276 275 274 273 262 249 238 240 246 243 240 240 238 229 230 249 260 262 263 268 274 278 275 273 276 274 285 294 298 301 304 303 305 308 308 nan nan nan nan nan nan nan nan nan nan nan nan nan nan nan nan nan nan nan nan nan nan nan nan nan nan nan nan nan nan nan nan nan nan nan nan nan nan nan nan nan nan nan nan nan nan
282 289 290 284 281 291 300 292 262 244 241 244 237 235 239 241 245 246 240 236 240 252 261 265 268 271 275 281 286 285 288 293 299 298 300 304 305 307 309 nan nan nan nan nan nan nan nan nan nan nan nan nan nan nan nan nan nan nan nan nan nan nan nan nan nan nan nan nan nan nan nan nan nan nan nan nan nan nan nan nan nan nan nan nan nan
282 288 290 295 302 308 310 298 268 246 242 244 242 237 238 247 257 261 254 246 243 240 242 258 269 276 285 288 286 284 288 294 300 304 305 306 306 304 nan nan nan nan nan nan nan nan nan nan nan nan nan nan nan nan nan nan nan nan nan nan nan nan nan nan nan nan nan nan nan nan nan nan nan nan nan nan nan nan nan nan nan nan nan nan nan
275 280 286 297 318 325 321 315 297 264 246 243 245 246 248 253 261 259 254 253 251 253 256 254 256 263 266 271 277 278 281 288 297 304 307 304 299 296 nan nan nan nan nan nan nan nan nan nan nan nan nan nan nan nan nan nan nan nan nan nan nan nan nan nan nan nan nan nan nan nan nan nan nan nan nan nan nan nan nan nan nan nan nan nan nan
271 276 278 284 297 311 319 324 320 286 255 249 254 257 258 261 260 253 247 246 249 253 253 254 253 252 273 274 273 276 283 294 305 309 310 302 298 296 nan nan nan nan nan nan nan nan nan nan nan nan nan nan nan nan nan nan nan nan nan nan nan nan nan nan nan nan nan nan nan nan nan nan nan nan nan nan nan nan nan nan nan nan nan nan nan
268 274 279 284 292 298 304 310 318 316 293 276 276 277 271 265 258 250 246 245 248 249 254 257 260 262 258 257 264 270 282 297 304 303 300 299 302 297 nan nan nan nan nan nan nan nan nan nan nan nan nan nan nan nan nan nan nan nan nan nan nan nan nan nan nan nan nan nan nan nan nan nan nan nan nan nan nan nan nan nan nan nan nan nan nan
265 271 278 286 290 294 297 295 297 301 301 295 290 299 300 283 267 257 248 244 246 252 260 266 272 275 271 265 271 274 273 276 276 272 273 277 287 291 nan nan nan nan nan nan nan nan nan nan nan nan nan nan nan nan nan nan nan nan nan nan nan nan nan nan nan nan nan nan nan nan nan nan nan nan nan nan nan nan nan nan nan nan nan nan nan
262 267 276 283 283 287 289 292 293 294 297 295 293 295 297 294 281 269 262 255 256 260 265 270 273 272 267 266 270 277 279 279 286 287 286 287 287 285 nan nan nan nan nan nan nan nan nan nan nan nan nan nan nan nan nan nan nan nan nan nan nan nan nan nan nan nan nan nan nan nan nan nan nan nan nan nan nan nan nan nan nan nan nan nan nan
253 256 266 275 277 279 280 285 290 293 296 298 294 286 285 287 286 286 285 286 286 287 284 280 276 272 272 277 282 285 292 288 291 290 288 291 293 nan nan nan nan nan nan nan nan nan nan nan nan nan nan nan nan nan nan nan nan nan nan nan nan nan nan nan nan nan nan nan nan nan nan nan nan nan nan nan nan nan nan nan nan nan nan nan nan
253 256 261 266 269 266 266 269 274 279 284 288 287 287 288 287 286 286 290 297 297 298 296 293 289 285 290 301 303 302 292 287 287 288 292 295 nan nan nan nan nan nan nan nan nan nan nan nan nan nan nan nan nan nan nan nan nan nan nan nan nan nan nan nan nan nan nan nan nan nan nan nan nan nan nan nan nan nan nan nan nan nan nan nan nan
254 256 261 262 262 260 260 260 261 263 267 273 278 283 282 284 287 291 296 296 294 292 290 284 278 279 286 299 302 303 287 280 283 288 nan nan nan nan nan nan nan nan nan nan nan nan nan nan nan nan nan nan nan nan nan nan nan nan nan nan nan nan nan nan nan nan nan nan nan nan nan nan nan nan nan nan nan nan nan nan nan nan nan nan nan
257 256 257 260 265 267 266 264 261 262 265 269 275 278 280 280 280 280 284 285 286 283 280 274 271 271 276 289 294 294 278 278 283 288 nan nan nan nan nan nan nan nan nan nan nan nan nan nan nan nan nan nan nan nan nan nan nan nan nan nan nan nan nan nan nan nan nan nan nan nan nan nan nan nan nan nan nan nan nan nan nan nan nan nan nan
259 257 257 258 261 263 264 267 269 267 266 266 267 270 273 274 274 274 275 276 276 274 272 269 269 270 269 273 276 278 276 278 283 288 nan nan nan nan nan nan nan nan nan nan nan nan nan nan nan nan nan nan nan nan nan nan nan nan nan nan nan nan nan nan nan nan nan nan nan nan nan nan nan nan nan nan nan nan nan nan nan nan nan nan nan
260 261 262 261 260 262 266 269 271 272 272 268 267 268 268 270 271 270 268 266 268 267 265 265 266 267 267 270 275 280 282 282 283 nan nan nan nan nan nan nan nan nan nan nan nan nan nan nan nan nan nan nan nan nan nan nan nan nan nan nan nan nan nan nan nan nan nan nan nan nan nan nan nan nan nan nan nan nan nan nan nan nan nan nan nan
258 261 264 265 265 265 265 267 269 272 274 273 271 268 265 264 265 268 269 267 264 263 264 263 264 265 266 269 272 277 280 281 282 nan nan nan nan nan nan nan nan nan nan nan nan nan nan nan nan nan nan nan nan nan nan nan nan nan nan nan nan nan nan nan nan nan nan nan nan nan nan nan nan nan nan nan nan nan nan nan nan nan nan nan nan
255 259 261 264 266 267 267 266 267 269 270 270 271 270 267 265 265 266 269 268 264 261 260 260 259 260 261 264 267 272 274 277 279 nan nan nan nan nan nan nan nan nan nan nan nan nan nan nan nan nan nan nan nan nan nan nan nan nan nan nan nan nan nan nan nan nan nan nan nan nan nan nan nan nan nan nan nan nan nan nan nan nan nan nan nan
253 256 258 261 262 264 266 267 268 269 267 269 270 271 270 268 267 268 266 265 263 259 258 256 255 254 257 260 263 267 270 273 275 nan nan nan nan nan nan nan nan nan nan nan nan nan nan nan nan nan nan nan nan nan nan nan nan nan nan nan nan nan nan nan nan nan nan nan nan nan nan nan nan nan nan nan nan nan nan nan nan nan nan nan nan
251 252 256 258 260 263 265 266 269 267 268 269 267 267 266 268 269 269 269 268 265 263 259 258 255 253 255 260 265 268 270 274 277 nan nan nan nan nan nan nan nan nan nan nan nan nan nan nan nan nan nan nan nan nan nan nan nan nan nan nan nan nan nan nan nan nan nan nan nan nan nan nan nan nan nan nan nan nan nan nan nan nan nan nan nan
251 251 252 255 258 259 261 262 263 264 265 263 265 265 267 267 267 268 269 270 268 264 260 258 257 257 260 263 268 272 277 281 nan nan nan nan nan nan nan nan nan nan nan nan nan nan nan nan nan nan nan nan nan nan nan nan nan nan nan nan nan nan nan nan nan nan nan nan nan nan nan nan nan nan nan nan nan nan nan nan nan nan nan nan nan
251 250 251 252 254 257 258 260 262 261 263 263 263 264 266 267 266 267 270 272 271 269 266 262 260 261 263 267 273 280 284 nan nan nan nan nan nan nan nan nan nan nan nan nan nan nan nan nan nan nan nan nan nan nan nan nan nan nan nan nan nan nan nan nan nan nan nan nan nan nan nan nan nan nan nan nan nan nan nan nan nan nan nan nan nan